Weather History for KTYR - June, 2013

Change the Weather History Date:

Saturday, June 15, 2013

  Actual Average Record
Temperature  
Mean Temperature 86 °F 80 °F  
Max Temperature 93 °F 88 °F 103 °F (1911)
Min Temperature 79 °F 71 °F 56 °F (1933)
Degree Days  
Heating Degree Days 0 0  
Month to date heating degree days 0 0  
Since 1 June heating degree days 0 0  
Since 1 July heating degree days 2013 2269  
Cooling Degree Days 21 15  
Month to date cooling degree days 222 198  
Year to date cooling degree days 619 567  
Since 1 June cooling degree days 222 198  
Growing Degree Days 36 (Base 50)    
Moisture  
Dew Point 72 °F    
Average Humidity 69    
Maximum Humidity 85    
Minimum Humidity 52    
Precipitation  
Precipitation T in 0.17 in 2.22 in (1975)
Month to date precipitation 0.95 2.34  
Year to date precipitation 14.99 21.27  
Snow  
Snow 0.00 in - - ()
Month to date snowfall 0.0  
Since 1 June snowfall 0.0  
Since 1 July snowfall 1.0  
Snow Depth 0.00 in    
Sea Level Pressure  
Sea Level Pressure 29.96 in    
Wind  
Wind Speed 6 mph (SE)    
Max Wind Speed 17 mph    
Max Gust Speed 25 mph    
Visibility 10 miles    
Events Rain , Thunderstorm    
T = Trace of Precipitation, MM = Missing Value Source: NWS Daily Summary

Daily Weather History Graph

Daily Weather History Graph

Search for Another Location

Airport or City:

Trip Planner

Search our weather history database for the weather conditions in past years. The results will help you decide how hot, cold, wet, or windy it might be!

Date:

Astronomy

Jun. 15, 2013 Rise Set
Actual Time 6:14 AM CDT 8:30 PM CDT
Civil Twilight 5:45 AM CDT 8:58 PM CDT
Nautical Twilight 5:11 AM CDT 9:33 PM CDT
Astronomical Twilight 4:33 AM CDT 10:11 PM CDT
Moon 12:29 PM CDT (6/15) 12:24 AM CDT (6/15)
Length of Visible Light 15h 12m
Length of Day
14h 15m
Waxing Crescent, 40% of the Moon is Illuminated
Jun 15
Waxing Crescent
Jun 16
First Quarter
Jun 23
Full
Jun 29
Last Quarter
Jul 8
New

Hourly Weather History & Observations

Time (CDT) Temp. Heat Index Dew Point Humidity Pressure Visibility Wind Dir Wind Speed Gust Speed Precip Events Conditions
12:53 AM 84.9 °F 92.1 °F 73.9 °F 69% 29.96 in 10.0 mi SE 11.5 mph - N/A   Clear
1:53 AM 84.0 °F 91.2 °F 73.9 °F 72% 29.96 in 10.0 mi SE 11.5 mph - N/A   Clear
2:53 AM 82.0 °F 87.9 °F 73.9 °F 76% 29.94 in 10.0 mi SE 4.6 mph - N/A   Mostly Cloudy
3:53 AM 81.0 °F 86.2 °F 73.9 °F 79% 29.91 in 10.0 mi NE 4.6 mph - N/A   Clear
4:53 AM 80.1 °F 84.5 °F 73.9 °F 81% 29.94 in 10.0 mi SSE 6.9 mph - N/A   Clear
5:24 AM 80.6 °F 85.4 °F 73.4 °F 79% 29.98 in 10.0 mi SE 12.7 mph - N/A   Mostly Cloudy
5:44 AM 80.6 °F 85.4 °F 73.4 °F 79% 29.98 in 10.0 mi East 9.2 mph - 0.00 in Rain Light Rain
5:53 AM 79.0 °F - 73.9 °F 84% 29.97 in 10.0 mi ESE 16.1 mph - 0.00 in   Overcast
6:53 AM 79.0 °F - 71.1 °F 77% 29.98 in 10.0 mi SSE 6.9 mph - N/A   Scattered Clouds
7:53 AM 80.1 °F 82.7 °F 68.0 °F 67% 30.00 in 10.0 mi SE 5.8 mph - N/A   Mostly Cloudy
8:53 AM 82.9 °F 85.0 °F 66.0 °F 56% 30.01 in 10.0 mi SSE 10.4 mph - N/A   Partly Cloudy
9:53 AM 84.9 °F 88.8 °F 69.1 °F 59% 30.00 in 10.0 mi SSE 6.9 mph - N/A   Clear
10:53 AM 86.0 °F 91.5 °F 71.1 °F 61% 30.00 in 10.0 mi Calm Calm - N/A   Clear
11:53 AM 87.1 °F 94.5 °F 73.0 °F 63% 29.99 in 10.0 mi SW 5.8 mph - N/A   Clear
12:53 PM 88.0 °F 95.6 °F 73.0 °F 61% 29.98 in 10.0 mi Variable 6.9 mph - N/A   Mostly Cloudy
1:53 PM 90.0 °F 96.9 °F 72.0 °F 55% 29.97 in 10.0 mi WSW 4.6 mph - N/A   Clear
2:53 PM 90.0 °F 96.4 °F 71.1 °F 54% 29.95 in 10.0 mi Calm Calm - N/A   Clear
3:53 PM 91.0 °F 98.2 °F 72.0 °F 53% 29.94 in 10.0 mi South 6.9 mph - N/A   Mostly Cloudy
4:53 PM 91.9 °F 100.7 °F 73.0 °F 54% 29.91 in 10.0 mi Variable 5.8 mph - N/A   Mostly Cloudy
5:01 PM 93.2 °F 100.5 °F 71.6 °F 49% 29.93 in 10.0 mi South 5.8 mph - N/A Thunderstorm Thunderstorm
5:53 PM 84.9 °F 89.4 °F 70.0 °F 61% 29.90 in 10.0 mi ENE 11.5 mph - N/A Thunderstorm Thunderstorm
6:34 PM 82.4 °F 86.3 °F 69.8 °F 66% 29.94 in 10.0 mi NNE 5.8 mph - N/A   Scattered Clouds
6:53 PM 82.0 °F 85.9 °F 70.0 °F 67% 29.92 in 10.0 mi ENE 3.5 mph - N/A   Clear
7:53 PM 81.0 °F 85.2 °F 72.0 °F 74% 29.94 in 10.0 mi Calm Calm - N/A   Clear
8:01 PM 80.6 °F 84.6 °F 71.6 °F 74% 29.95 in 10.0 mi Calm Calm - N/A   Scattered Clouds
8:53 PM 81.0 °F 85.2 °F 72.0 °F 74% 29.94 in 10.0 mi Calm Calm - N/A   Partly Cloudy
9:53 PM 80.1 °F 83.8 °F 72.0 °F 76% 29.94 in 10.0 mi Calm Calm - N/A   Clear
10:53 PM 81.0 °F 86.2 °F 73.9 °F 79% 29.96 in 10.0 mi SE 4.6 mph - N/A   Clear
11:53 PM 82.0 °F 86.3 °F 71.1 °F 69% 29.96 in 10.0 mi SSE 6.9 mph - N/A   Clear